Погода в Дабу

Кот-д’Ивуар     5°19′46″N   4°22′32″W
темп.,
°C
ветер,
м/с
пор.,
м/с
влажн.,
%
обл.,
%
осадки,
мм/ч
давл.,
гПа
погр.,
м
1 августа, вс
вс100:00+25юз478762 0.9 1017251
03:00+24юз478725 0.7 1015350
06:00+24зюз358885 1.2 1016224
09:00+25зюз458158 0.3 1018519
12:00+25юз458193 0.3 1017498
15:00+25ююз4580100 0.0 1015483
18:00+25юз46853 0.0 1015458
21:00+25юз468918 0.1 1017177
2 августа, пн
пн200:00+24зюз359193 0.1 1017195
03:00+24з479110 0.1 1015339
06:00+23зсз359210 0.1 1016222
09:00+25з248099 0.0 1018343
12:00+25юз458037 0.0 1017507
15:00+25ююз5580100 0.0 1015475
18:00+25юз4585100 0.0 1015407
21:00+25ююз468770 0.0 1016286
3 августа, вт
вт300:00+24юз47886 0.0 1016356
03:00+24юз5788100 0.0 1014499
06:00+24юз4688100 0.1 1015440
09:00+25зюз4681100 0.2 1017558
12:00+25юз567871 0.3 1017561
15:00+25юз667833 0.0 1015570
18:00+25юз57825 0.0 1014475
21:00+24ююз46845 0.0 1017295
4 августа, ср
ср400:00+24ююз478577 0.0 1017375
03:00+24ююз568698 0.0 1015501
06:00+24ююз468658 0.1 1016467
09:00+25ююз5680100 0.1 1018513
12:00+25ююз5578100 0.3 1018588
15:00+25ююз567877 0.1 1016565
18:00+24ююз568029 0.1 1017425
21:00+24ююз578177 0.1 1018207
5 августа, чт
чт500:00+24ююз687775 0.1 1018253
03:00+24ююз687955 0.0 1016361
06:00+24юз577945 0.0 1018344
09:00+25ююз467417 0.0 1020612
12:00+25юз557447 0.0 1019698
15:00+25юз4572100 0.0 1017567
18:00+24юз577931 0.0 1016540
21:00+24ююз578187 0.0 1018417